Theta_e
280 280 279 279 279 278 277 277 276 276 275 275 274 274 274 274 274 274 274 274 274 274 274 274 273 273 273 273 273 273 273 272 272 272 272 272 272 272 272 272 272 272 272 273 273 273 272 272 271 271 271 270 270 270 269 269 269 269 269 270 270 271 271
280 280 279 279 279 278 278 277 276 276 275 274 274 274 274 274 274 274 274 273 273 273 273 273 273 272 272 272 272 272 272 272 271 271 271 271 271 271 271 271 271 270 270 271 272 272 271 271 270 270 270 270 269 269 269 268 268 268 268 268 269 269 270
280 280 279 279 278 278 277 277 276 275 275 274 274 274 273 273 273 273 273 273 273 273 272 272 272 272 272 271 271 271 271 271 271 270 270 270 270 270 270 270 270 270 269 269 270 271 270 270 270 270 269 269 269 268 268 268 268 268 268 268 268 268 270
280 279 279 278 278 278 277 276 276 275 274 274 274 274 273 273 273 273 273 273 273 272 272 272 272 272 271 271 271 271 271 270 270 270 270 269 269 269 269 269 269 269 269 268 269 269 270 269 269 269 268 268 268 268 268 267 267 267 267 267 267 267 269
280 279 279 278 278 278 277 276 276 275 274 274 274 273 273 273 273 273 273 273 273 272 272 272 272 271 271 271 270 270 270 270 270 269 269 269 269 269 268 268 268 268 268 268 267 268 269 268 268 267 267 267 267 267 267 267 267 266 266 266 267 267 268
280 279 279 278 278 278 277 276 276 275 274 274 274 273 273 273 272 272 272 272 272 272 272 272 271 271 271 271 270 270 270 270 269 269 269 268 268 268 268 268 268 267 267 267 266 267 267 268 267 267 266 267 266 266 266 266 266 266 266 266 266 267 267
280 280 279 278 278 278 277 277 276 275 275 274 274 273 273 272 272 272 272 271 271 271 271 271 271 271 271 271 271 270 270 269 269 269 268 268 268 268 267 267 267 267 266 266 266 265 265 266 267 266 266 267 266 265 265 266 266 266 266 266 266 266 267
281 280 279 278 278 277 277 276 276 275 275 274 274 273 273 272 272 271 271 271 271 271 271 270 270 270 270 270 270 270 270 270 269 269 268 268 268 267 267 266 266 266 265 265 265 264 264 264 265 265 265 266 265 265 265 266 266 266 266 267 267 267 267
281 280 279 278 278 277 277 276 275 275 274 274 273 273 273 272 272 271 271 270 270 270 270 270 270 269 269 269 270 270 270 270 269 269 268 268 267 267 266 266 265 265 265 264 264 264 264 264 264 264 265 265 265 265 266 266 266 266 266 267 267 267 267
280 280 279 278 278 277 276 276 275 275 275 274 274 273 273 272 271 271 271 270 270 269 269 269 269 269 269 269 269 269 269 269 268 268 268 268 268 267 266 265 265 265 264 264 264 263 264 264 264 264 264 265 265 266 266 266 266 266 267 267 266 266 266
279 279 279 278 278 277 276 276 275 275 275 274 274 273 273 272 272 271 271 270 269 269 269 268 268 268 268 268 268 268 268 268 267 267 267 267 267 267 267 266 265 264 264 264 264 264 264 264 264 264 265 265 265 266 266 266 266 266 266 266 266 265 266
278 278 278 278 277 277 276 276 275 275 275 274 274 273 273 273 272 271 270 270 269 269 268 268 267 267 267 267 267 267 267 267 267 266 266 267 266 266 266 266 266 265 265 264 264 264 264 264 264 265 265 265 266 266 266 266 266 266 266 266 265 265 265
277 277 277 277 277 276 276 276 275 275 274 274 274 274 273 273 272 271 270 270 269 269 268 268 267 267 266 266 266 266 266 266 266 266 266 266 266 265 265 265 265 265 265 265 264 264 264 264 265 265 265 266 266 266 266 266 266 266 266 266 265 265 265
277 276 276 276 276 276 276 275 275 275 274 274 275 275 274 273 272 271 270 270 269 269 268 268 267 267 266 266 266 266 266 266 266 265 265 265 265 264 264 264 264 264 264 264 264 264 264 265 265 265 266 266 266 266 266 266 266 266 266 265 265 265 265
276 276 275 275 275 275 275 275 275 274 274 274 275 275 275 274 273 271 270 269 269 269 268 267 267 267 266 266 266 266 266 266 266 265 265 264 264 264 264 264 264 264 264 264 264 264 264 264 264 265 265 265 266 266 266 266 266 265 265 265 264 264 264
275 275 275 275 275 274 274 274 274 274 273 274 274 275 275 275 273 271 270 269 268 268 268 267 267 266 266 266 266 266 266 266 266 265 264 264 264 264 264 264 264 265 265 266 265 264 264 264 264 264 264 265 265 265 265 265 265 265 264 264 263 263 263
275 274 274 274 274 274 274 273 273 273 273 273 274 274 274 274 273 271 270 269 268 267 267 267 266 266 266 265 265 265 266 266 265 265 264 263 263 263 263 263 264 265 266 265 265 264 264 264 264 264 265 265 265 265 265 264 264 264 264 263 263 263 263
274 274 274 273 273 273 273 273 273 273 272 272 273 274 274 274 274 271 269 268 268 267 266 266 266 266 266 265 265 265 265 265 265 265 264 264 263 263 262 263 263 265 265 264 264 264 265 265 265 265 265 265 266 266 266 265 264 264 264 263 263 263 263
273 273 273 273 273 272 272 272 272 272 272 271 272 273 273 273 273 272 269 268 267 267 266 266 266 265 265 265 265 265 265 265 265 265 264 264 263 262 262 263 264 264 264 263 263 263 264 265 265 265 265 265 265 266 266 266 265 265 264 264 264 263 263
273 273 272 272 272 272 272 271 271 271 271 271 271 272 272 273 273 271 270 268 268 267 266 266 265 265 266 266 265 265 265 265 266 265 265 264 264 263 263 265 265 264 264 263 263 263 263 264 264 265 265 265 265 265 265 266 266 265 265 264 264 264 263
272 272 272 272 271 271 271 271 271 271 271 270 270 271 271 272 272 272 270 269 268 267 267 266 265 265 266 267 267 266 266 266 267 266 266 265 265 265 265 265 265 264 264 264 263 263 263 263 263 264 264 264 264 265 265 265 265 265 265 264 264 264 264
271 271 271 271 271 271 270 270 270 270 270 270 269 269 270 271 271 272 271 270 269 268 267 267 267 267 267 268 268 267 266 266 267 268 267 266 266 266 266 265 265 265 264 264 263 263 263 263 263 263 263 263 263 263 264 264 264 264 264 264 264 264 263
270 270 270 270 270 270 270 269 269 269 269 269 269 269 269 269 270 271 271 271 270 269 268 268 267 268 268 268 268 267 267 267 267 268 268 267 267 266 266 266 265 265 264 264 263 263 263 263 262 262 262 262 262 262 262 263 263 263 263 263 263 263 263
269 269 269 269 269 269 269 269 268 268 268 268 268 268 268 268 269 270 270 270 270 269 269 268 268 268 268 268 267 267 267 267 267 268 268 268 267 267 266 266 265 265 264 264 263 263 263 262 262 262 262 262 262 262 262 262 263 263 263 263 262 262 262
269 269 269 268 268 268 268 268 267 267 267 267 267 267 267 267 267 268 269 270 269 269 269 268 267 268 268 268 267 266 266 266 266 267 267 267 266 266 266 266 265 265 264 263 263 263 263 263 262 262 262 262 262 263 263 263 263 262 262 262 262 262 262
268 268 268 268 268 267 267 267 266 266 266 266 266 266 266 266 266 267 268 268 268 268 268 267 267 267 267 267 266 266 265 265 265 265 265 265 265 265 265 265 265 265 264 264 263 263 263 263 263 263 263 263 263 263 263 263 263 262 262 261 261 261 260
267 267 267 267 267 267 267 266 266 265 265 265 265 265 265 265 265 265 266 267 267 266 267 267 266 266 266 265 265 264 264 264 264 264 264 263 263 263 263 264 264 264 264 264 264 263 263 263 263 263 263 263 263 263 263 263 262 262 261 261 260 260 259
266 266 266 266 266 266 266 266 265 265 265 264 264 264 264 264 264 264 265 265 265 265 265 266 265 265 264 264 263 263 263 262 262 262 262 262 262 262 262 262 262 263 263 263 263 263 263 263 262 262 262 262 262 262 262 262 262 262 261 260 260 259 258
264 264 264 265 265 265 265 265 265 265 265 265 264 264 264 263 263 263 264 264 264 264 264 264 264 263 262 262 262 262 261 261 261 261 261 261 261 261 261 261 261 261 261 262 262 262 262 262 262 262 262 262 262 262 262 262 261 261 260 260 259 258 258
263 263 263 264 264 264 264 264 265 265 265 265 264 264 264 263 263 263 263 263 263 263 263 263 262 262 262 262 261 261 261 261 261 260 260 260 260 260 260 260 260 260 261 261 261 261 261 261 261 261 261 261 261 261 261 261 261 260 260 259 258 258 258
263 263 263 263 263 263 264 264 264 264 264 264 264 264 263 263 263 262 262 262 263 262 262 262 262 261 261 261 261 261 261 261 261 260 260 260 260 260 260 260 260 260 260 260 260 260 260 261 261 261 261 261 261 260 260 260 260 260 259 259 258 258 257
263 263 262 262 263 263 263 263 263 263 263 264 264 263 263 263 262 262 262 262 262 262 261 261 261 261 261 261 261 261 261 261 261 260 260 260 260 260 260 260 260 260 260 260 260 260 260 260 260 260 260 260 260 260 259 259 259 259 259 258 258 258 257
263 263 262 262 262 262 263 263 263 263 263 263 263 263 263 263 263 262 262 262 261 261 261 261 261 261 261 261 261 261 261 261 261 261 261 261 261 261 261 260 260 260 260 260 260 260 260 260 260 260 260 259 259 259 259 259 258 258 258 258 258 257 257
262 263 262 262 262 262 262 262 262 262 262 262 262 263 263 262 262 262 262 261 261 261 260 260 260 260 261 261 261 261 261 261 261 261 261 261 261 261 261 261 261 260 260 260 260 260 260 260 259 259 259 259 259 259 258 258 258 258 258 257 257 257 257
262 262 262 262 261 261 261 261 261 261 261 261 261 262 262 262 262 261 261 261 261 260 260 260 260 260 260 260 260 261 261 261 261 261 261 261 261 261 261 261 261 261 260 260 260 260 259 259 259 259 259 258 258 258 258 258 258 257 257 257 257 257 257
261 261 261 261 261 261 261 260 260 260 260 261 261 261 261 261 261 261 261 261 260 260 260 260 260 260 260 260 260 261 261 261 261 261 261 261 261 261 261 261 261 261 260 260 260 259 259 259 259 259 258 258 258 257 257 257 257 257 257 257 257 257 257
Wind_Speed
35 35 36 36 37 37 38 39 39 40 41 41 41 40 39 37 37 38 37 35 34 34 34 34 34 34 33 31 29 29 29 29 28 28 27 26 26 26 25 24 21 14 9 11 14 13 12 11 11 13 15 16 17 18 18 19 20 21 21 21 20 19 19
35 35 35 36 37 38 38 39 39 39 40 41 41 41 39 37 37 38 37 36 35 35 34 34 34 34 34 32 31 30 30 30 29 28 28 27 26 27 27 26 25 19 13 15 19 17 14 14 13 13 15 16 17 18 18 19 20 21 21 22 22 23 23
34 35 35 36 37 38 38 38 38 39 40 41 41 41 40 39 38 39 39 38 38 36 35 35 35 35 35 33 31 31 30 30 30 29 29 28 28 28 28 27 26 23 18 17 20 20 18 18 17 17 18 18 18 18 18 20 20 21 23 24 25 26 24
33 34 35 37 37 37 38 38 38 39 40 41 41 41 41 40 40 40 41 40 39 37 37 37 36 36 36 35 33 32 31 30 30 30 30 29 28 28 27 26 26 26 23 19 19 21 21 19 18 18 18 17 18 19 19 21 22 23 25 26 25 25 23
33 34 35 37 38 38 38 38 38 39 40 40 40 41 41 40 40 41 41 40 39 38 38 39 38 38 37 37 36 34 33 33 32 31 31 30 29 28 27 26 25 25 25 21 20 22 23 20 19 19 20 20 20 21 21 23 24 24 24 24 23 23 22
34 35 36 37 38 38 38 38 38 39 40 40 40 41 41 40 39 39 40 40 39 39 39 40 40 39 39 40 39 38 36 35 34 32 31 31 30 28 27 26 25 24 24 24 23 23 23 24 24 22 22 22 21 20 20 22 22 22 22 22 23 23 21
35 36 36 37 38 38 38 38 38 39 39 40 40 41 41 40 39 38 38 39 39 39 40 41 41 40 41 41 42 41 40 37 36 34 33 32 31 29 27 26 26 25 24 24 23 22 23 25 25 24 24 23 20 17 19 20 21 22 22 22 22 22 19
36 36 36 36 37 37 37 38 38 39 39 40 40 40 41 40 40 39 38 39 40 40 40 41 41 41 42 42 42 42 41 40 38 36 34 32 30 29 28 27 26 25 25 24 22 22 22 22 23 24 24 23 19 17 20 21 20 22 22 20 18 17 15
36 36 36 36 36 37 37 38 39 39 39 39 40 40 40 40 40 40 39 39 39 40 41 41 41 41 42 42 42 41 40 39 39 38 36 34 32 31 29 27 26 25 25 23 21 21 20 19 20 22 23 23 21 21 21 18 17 19 19 16 15 16 17
35 36 37 37 36 37 37 38 39 39 39 39 40 40 40 40 40 40 40 40 39 39 40 40 40 40 41 41 41 40 39 38 38 37 36 34 34 34 32 30 28 26 25 23 21 21 20 18 19 22 24 25 25 23 21 18 17 18 18 15 16 18 20
35 36 36 37 37 37 38 39 39 38 38 39 39 40 40 40 40 40 40 40 39 39 39 39 39 39 39 40 40 39 38 38 37 36 35 34 34 34 34 33 31 28 27 25 23 22 22 20 21 24 25 25 24 23 21 21 20 19 18 16 14 13 15
34 35 36 36 37 38 38 39 39 39 39 39 39 40 41 41 40 40 40 40 40 39 38 38 38 37 38 39 39 39 39 38 37 37 36 35 34 35 35 35 34 32 30 29 26 24 24 25 24 25 26 25 25 23 22 21 21 20 20 19 17 15 15
33 35 35 35 37 38 39 39 39 38 38 37 37 37 40 42 42 41 41 41 40 39 38 37 37 37 37 38 38 39 38 37 37 37 36 35 35 36 35 35 36 36 34 32 30 28 28 29 28 26 27 27 25 23 22 21 21 21 20 20 20 21 21
32 34 34 35 36 37 38 39 38 38 37 36 34 35 37 41 42 42 41 41 40 40 39 38 37 37 38 38 38 38 38 37 37 36 36 36 36 36 35 35 36 36 36 35 35 33 33 32 31 30 29 27 24 24 24 24 23 22 20 20 21 22 23
30 32 33 33 35 36 37 38 37 36 37 35 33 34 35 37 40 41 40 39 39 40 39 38 38 37 37 38 39 39 38 38 37 36 35 36 36 36 36 37 38 37 37 38 38 38 37 35 33 33 31 29 26 26 25 24 24 22 21 21 22 22 23
29 30 31 32 32 34 36 37 35 35 37 35 34 34 34 35 36 38 38 38 38 38 38 38 37 36 35 36 38 38 37 36 36 36 36 36 36 36 36 38 38 37 37 38 39 40 39 37 36 35 33 31 30 29 27 24 23 22 21 21 20 20 23
28 29 29 30 31 32 34 36 34 33 35 35 34 34 34 34 33 34 36 37 36 36 37 37 37 36 34 34 35 35 35 34 34 34 36 37 36 35 36 37 36 35 36 38 37 36 34 34 35 34 32 30 28 28 27 25 24 24 22 20 15 14 18
28 29 28 28 29 30 32 35 34 32 33 34 33 34 35 34 31 31 32 33 34 34 34 35 37 37 36 34 33 33 33 33 34 35 36 36 36 34 35 35 33 33 35 35 33 31 30 30 30 30 30 29 28 26 26 27 28 25 23 20 16 14 16
27 28 28 27 28 29 30 33 33 31 32 33 33 34 35 34 31 29 29 29 30 31 32 33 35 36 37 36 34 34 33 33 34 36 35 35 36 35 34 32 31 32 32 30 29 29 30 31 30 29 29 30 29 28 28 30 30 27 25 24 22 19 15
26 28 29 27 27 28 28 30 31 30 31 33 33 34 35 34 31 29 28 27 28 29 30 31 33 34 36 36 35 36 35 33 33 35 35 35 36 36 34 31 30 30 29 27 27 27 28 30 31 31 31 31 30 30 32 33 32 30 29 27 25 23 19
26 26 28 27 26 26 27 27 28 29 30 32 34 34 35 35 33 29 26 26 28 29 29 30 31 33 34 34 34 36 36 33 32 33 34 35 35 34 31 29 29 28 27 26 26 25 25 27 29 30 32 33 34 35 36 37 37 35 34 32 30 27 25
25 25 26 27 25 25 26 26 26 27 28 30 33 35 35 36 35 31 26 24 24 26 28 29 30 31 33 34 34 34 33 31 30 31 33 35 35 32 29 27 26 25 25 25 25 25 25 25 26 28 31 32 34 37 38 39 40 39 39 39 38 35 32
23 22 23 25 24 24 25 26 25 25 27 29 32 34 36 37 37 33 28 26 25 23 23 27 29 30 31 31 31 31 30 28 28 29 29 30 29 29 28 27 25 24 24 24 24 24 24 25 25 27 28 29 31 33 34 35 35 36 36 38 39 40 40
20 19 20 21 22 22 23 24 24 25 26 28 30 33 35 35 36 33 29 27 26 25 22 23 27 28 28 27 26 27 27 26 26 27 26 24 23 23 24 25 26 25 25 24 24 24 24 25 26 27 28 28 28 29 29 29 29 29 29 30 31 33 35
18 18 18 19 19 20 21 21 22 23 24 26 28 30 32 32 32 33 30 25 23 24 24 23 25 26 25 24 23 22 23 24 25 26 26 25 24 23 23 24 25 25 25 24 24 24 24 25 27 28 28 27 25 25 25 25 26 26 26 27 27 28 30
18 18 18 18 19 20 20 19 19 20 22 23 25 26 28 29 29 31 32 26 20 20 22 23 23 24 23 22 20 20 22 23 24 24 25 26 26 25 26 26 25 24 24 24 24 24 26 27 27 26 26 24 23 24 24 24 25 25 25 25 26 27 28
18 17 17 17 18 19 19 18 17 18 19 21 23 24 26 27 27 28 30 27 20 17 20 21 21 22 22 20 19 19 20 21 22 23 24 25 26 26 27 28 28 27 26 25 25 25 26 26 25 24 24 24 24 25 25 26 26 25 24 23 24 25 26
19 18 18 18 18 18 17 17 17 18 19 20 22 24 24 25 26 25 27 26 22 18 20 21 19 18 18 18 17 17 18 19 21 22 24 25 26 27 27 28 28 28 28 28 27 27 26 25 24 24 24 25 25 26 27 27 27 27 25 23 21 21 22
21 21 21 20 19 17 16 16 16 16 17 19 22 23 24 24 25 25 26 26 24 21 21 20 18 17 17 17 17 17 18 19 21 22 23 24 25 25 26 26 27 28 28 29 28 28 27 25 24 24 25 24 25 26 26 26 27 26 25 23 22 22 22
22 23 24 23 21 19 18 17 17 15 14 16 19 21 22 24 25 25 25 25 24 22 21 19 18 17 17 18 18 19 20 20 21 21 22 23 24 24 25 25 27 28 28 28 28 28 27 25 25 24 24 24 24 25 24 25 26 25 24 23 23 23 23
21 21 21 21 21 21 20 19 17 16 15 14 14 16 19 20 21 22 23 23 22 21 19 17 16 16 17 19 19 20 20 20 20 20 20 20 22 24 25 25 26 27 27 27 27 27 26 25 25 25 24 24 24 24 23 24 24 25 25 24 24 23 22
20 19 18 17 17 18 18 17 15 13 13 12 12 13 15 15 15 16 18 20 20 18 17 17 16 16 17 19 19 19 19 18 18 19 19 19 20 22 24 26 27 26 26 26 26 25 25 26 26 25 25 25 24 23 23 24 24 25 25 25 25 24 23
18 17 15 14 14 13 13 13 12 10 9 9 9 10 10 11 11 11 13 16 18 17 16 16 17 16 17 17 17 17 17 18 18 19 20 20 21 21 22 25 26 26 25 25 25 25 25 25 25 25 25 24 24 24 24 24 24 25 25 24 23 23 23
17 14 14 14 14 13 11 11 9 8 7 6 6 6 7 8 9 10 12 15 17 17 15 15 15 15 15 16 16 17 17 18 19 20 21 21 22 22 22 22 22 23 25 25 25 25 25 24 25 25 25 24 23 23 23 23 23 23 23 23 22 22 21
18 16 15 16 16 15 14 13 11 10 9 7 6 7 7 8 9 11 13 15 17 17 16 15 15 15 16 17 17 18 19 20 20 20 21 21 21 21 21 21 21 22 24 25 25 25 25 25 25 25 25 24 23 23 22 22 23 23 24 24 22 21 20
19 18 17 16 16 16 14 13 12 12 11 9 8 8 9 11 13 13 14 16 17 17 17 17 17 17 17 17 18 19 20 21 21 21 21 21 21 21 20 21 21 22 23 23 24 25 26 26 26 25 25 24 24 24 24 23 23 24 24 24 23 22 20
Wind_Direction
234 234 233 231 230 229 229 228 227 227 225 224 224 223 222 220 218 219 219 218 218 218 219 219 218 216 214 214 215 215 216 215 214 216 215 215 216 216 216 214 212 210 214 212 201 191 197 214 225 234 242 248 253 258 262 267 272 276 279 280 282 283 284
235 235 234 233 232 231 230 230 228 227 224 223 224 223 222 220 219 218 218 217 217 217 217 217 217 215 213 213 214 214 214 214 213 213 213 213 214 217 217 216 215 213 214 224 227 223 222 226 231 235 239 244 251 257 262 264 267 270 275 279 283 286 288
237 236 235 234 234 232 231 230 229 227 225 224 224 223 222 220 220 219 218 217 217 216 215 214 215 214 211 210 211 212 212 213 213 212 212 212 213 216 218 219 219 218 216 224 233 236 236 236 237 238 241 247 253 257 258 259 261 265 269 274 280 284 286
238 237 236 235 234 232 231 231 229 228 227 226 226 225 224 222 221 221 221 220 219 217 215 214 214 213 211 209 208 208 209 210 211 211 211 211 212 216 219 220 221 223 223 224 230 239 243 243 244 246 246 248 251 252 255 259 264 267 271 275 279 282 284
239 237 236 235 234 234 233 232 231 228 228 227 227 227 226 225 224 223 223 222 221 220 218 216 216 215 212 210 208 207 207 208 209 209 210 210 211 214 218 218 220 224 226 226 228 236 243 246 248 250 250 250 253 257 260 265 268 271 275 278 280 281 284
239 237 236 236 236 236 234 233 232 230 229 229 229 228 228 227 226 225 224 223 223 223 222 220 220 218 215 212 210 208 207 208 208 208 208 210 211 213 215 215 217 221 225 227 231 236 243 249 253 257 259 259 259 261 264 268 272 273 274 275 277 280 283
241 240 239 238 237 236 235 234 232 231 230 230 229 229 228 227 227 226 225 225 225 225 225 224 223 221 219 217 216 214 212 210 209 208 210 212 212 211 212 214 217 220 223 226 231 235 241 247 253 258 262 265 265 261 259 263 266 268 270 271 273 276 279
244 243 241 240 239 238 237 234 232 231 229 229 229 228 228 227 226 225 225 226 226 226 226 226 225 223 223 222 222 220 218 216 214 211 210 212 213 212 213 215 216 218 221 224 228 233 237 243 251 256 261 265 263 254 251 253 255 261 269 274 272 268 266
246 245 243 241 240 239 237 235 233 231 229 229 228 227 228 227 226 225 225 225 225 225 225 225 225 224 224 225 224 224 223 222 221 219 216 214 214 214 213 215 215 216 218 220 224 230 232 236 243 248 254 256 251 246 251 256 254 256 264 270 264 255 255
248 246 244 242 241 239 237 235 234 233 232 231 229 228 228 228 227 226 225 224 223 223 224 224 224 224 225 225 226 225 225 224 224 225 225 224 222 220 216 213 213 215 217 218 221 225 225 227 234 238 242 247 249 250 254 254 248 249 254 258 258 261 264
251 249 247 245 243 240 238 237 236 234 233 232 231 229 228 227 227 226 225 224 223 222 221 222 223 223 224 224 224 224 224 225 225 226 227 228 229 229 226 220 216 215 217 218 222 225 223 222 231 236 238 243 249 250 250 249 246 246 246 245 249 262 270
253 252 250 247 245 243 241 240 239 237 235 232 231 230 229 229 227 226 225 224 223 222 221 220 220 221 221 222 222 222 222 223 225 226 227 229 231 233 233 230 226 224 221 220 222 225 225 224 229 235 237 239 243 244 247 249 247 243 241 241 242 248 255
256 254 251 249 247 246 245 244 242 239 236 233 229 228 229 230 229 227 227 225 224 223 221 219 219 219 220 221 221 221 222 221 223 225 226 229 231 232 233 233 234 234 231 229 228 228 229 229 229 233 237 238 240 242 242 242 242 241 239 240 243 248 253
259 257 254 251 249 249 248 247 244 241 238 233 227 225 228 231 231 230 229 227 225 224 222 220 219 218 219 220 219 219 221 222 223 223 224 226 227 228 229 231 234 235 235 235 233 233 235 235 234 236 240 242 242 241 240 240 241 241 241 244 249 256 261
262 260 258 255 253 251 251 250 247 243 239 233 227 225 228 232 232 230 229 228 226 225 223 221 220 220 220 220 220 221 222 223 224 225 225 225 225 226 228 229 230 232 234 237 237 236 238 239 239 240 242 243 243 243 243 244 245 246 249 255 260 263 263
266 263 261 259 255 253 253 253 250 246 243 235 228 227 230 233 232 228 227 228 226 225 224 222 221 220 220 221 223 223 224 226 227 226 225 225 226 228 229 231 233 235 238 242 242 241 241 241 243 244 244 245 245 244 244 244 246 249 251 256 263 263 260
271 267 264 261 257 253 253 255 252 249 246 238 230 229 230 232 232 228 225 226 226 224 224 223 222 220 219 220 222 224 226 228 228 227 226 226 227 229 231 234 236 239 243 244 243 243 243 243 244 244 244 244 243 243 244 242 242 245 245 247 252 255 254
276 273 268 264 261 256 254 256 254 250 247 240 232 230 232 232 232 228 223 221 223 223 223 223 224 222 220 219 220 223 226 227 227 226 225 225 226 227 229 233 236 240 244 244 241 239 239 240 241 240 240 240 238 238 238 236 237 239 236 236 239 244 253
279 276 273 269 266 263 258 257 256 252 248 242 234 231 233 234 233 229 222 216 217 219 221 222 224 224 225 224 223 224 225 225 226 225 223 223 224 223 226 231 235 237 239 239 238 236 233 233 235 236 238 239 238 236 235 235 239 238 232 231 236 241 247
280 278 277 274 270 267 262 259 257 255 250 245 238 232 232 234 234 230 223 216 213 214 215 218 220 222 226 228 228 228 227 223 221 223 224 223 221 222 227 233 235 235 234 234 235 235 232 232 233 233 235 237 237 236 235 236 238 238 235 234 237 237 237
283 280 278 277 273 269 265 261 259 257 253 248 243 236 232 233 236 233 224 216 213 212 212 213 214 217 223 228 230 231 229 223 219 221 224 224 224 227 232 235 234 233 233 233 233 233 233 234 234 235 236 237 237 237 237 237 238 238 237 237 236 237 239
286 282 280 279 275 271 268 265 261 258 255 251 247 241 236 234 236 235 228 219 214 212 212 212 212 215 222 227 229 228 226 222 219 220 223 226 229 233 235 233 231 230 228 227 227 229 231 232 232 234 237 239 239 240 241 241 241 241 240 240 239 239 241
289 285 282 281 279 274 271 268 263 259 255 252 248 245 241 238 236 236 233 226 221 215 209 208 209 213 219 225 225 223 221 219 219 222 224 224 225 230 232 230 226 223 220 220 222 225 227 229 231 233 235 237 238 241 243 245 246 247 245 245 245 244 244
293 289 285 283 282 279 275 270 265 260 257 254 250 247 245 241 237 236 235 232 227 221 212 204 202 205 212 219 220 218 217 217 218 220 221 220 219 224 227 225 221 219 218 218 220 222 224 228 230 232 235 236 238 242 246 248 251 253 251 250 249 248 248
296 293 288 285 284 284 282 274 266 262 259 257 253 249 246 244 240 237 236 236 231 222 216 208 201 201 210 218 217 212 212 214 217 220 224 227 228 229 227 224 221 219 217 218 221 223 226 229 231 233 237 239 241 243 244 245 247 250 250 248 247 247 247
298 295 292 289 287 287 285 278 269 264 262 258 253 249 245 243 242 238 236 239 235 220 211 205 200 202 208 212 210 207 207 209 213 218 224 228 229 229 227 226 224 221 219 221 224 225 228 231 233 236 238 239 239 238 235 235 237 239 241 241 240 240 242
303 300 296 293 292 291 287 281 273 266 262 258 253 249 244 241 240 238 235 236 232 211 198 195 195 199 204 205 203 205 207 209 212 217 222 226 227 228 227 227 227 226 226 228 229 230 233 235 236 236 236 235 234 234 233 234 233 233 234 236 235 237 242
309 306 304 301 300 298 292 283 276 269 264 259 255 251 246 240 237 235 231 230 225 207 196 195 194 193 196 199 201 205 210 215 220 224 227 229 230 230 230 229 229 229 231 232 234 235 237 238 236 235 234 234 234 234 234 234 233 233 234 234 233 235 242
307 304 302 299 298 299 295 288 285 281 273 267 261 256 250 243 239 235 230 227 222 210 200 199 197 193 192 198 207 213 218 221 225 228 230 231 230 230 229 227 226 227 228 230 232 233 235 235 235 235 234 233 233 232 231 229 229 231 233 233 232 236 241
303 302 300 296 292 291 290 290 292 293 286 273 263 258 256 252 247 240 232 225 219 211 205 202 201 201 203 208 215 221 225 226 225 226 228 228 227 226 226 225 224 225 227 228 228 230 231 231 232 233 232 230 230 230 229 228 228 229 231 230 231 237 242
306 305 302 298 294 289 289 290 291 292 290 276 260 257 259 255 247 239 233 223 214 208 207 204 203 208 213 217 221 226 228 228 226 224 224 224 224 224 224 224 224 225 226 226 227 228 228 228 229 230 230 229 229 229 229 228 228 228 229 230 232 237 242
309 309 305 302 298 294 293 293 289 289 290 277 258 253 255 248 237 230 226 217 207 203 205 205 206 211 216 218 222 227 229 228 227 226 225 224 223 224 224 225 226 227 226 225 225 225 225 226 227 228 229 230 230 230 229 227 226 226 227 231 234 238 242
310 310 310 309 303 296 295 296 293 290 289 280 264 252 245 238 230 219 208 200 197 201 204 206 209 215 218 219 223 227 229 229 229 230 230 228 228 229 229 230 231 230 227 225 225 224 224 225 225 226 228 229 229 229 227 225 225 225 227 230 234 237 240
314 310 310 313 310 300 290 287 283 279 277 274 265 250 232 222 217 209 202 200 202 206 208 210 214 219 222 224 226 228 229 230 232 233 234 235 235 236 237 236 234 230 227 226 225 225 225 226 225 225 225 226 226 226 225 224 224 224 224 227 231 235 238
314 312 308 310 312 307 296 283 273 266 262 256 245 235 222 208 203 204 207 209 211 214 218 219 220 223 225 227 229 231 232 234 235 235 235 237 238 239 238 237 233 230 228 227 225 226 227 227 227 226 225 224 223 222 222 223 223 223 225 228 232 234 236
308 310 308 306 308 308 302 292 280 271 264 255 240 225 214 209 208 210 213 216 219 221 224 225 226 228 229 230 231 234 235 236 237 238 238 238 239 239 237 234 231 229 229 227 226 227 228 227 227 226 224 222 222 222 222 224 225 226 229 231 233 235 237